Date String (YYYY-MM-DD hh:mm:ss) UTC,Instrument flags,Ambient pressure (hPa),Sample flow (lpm),Bypass flow (lpm),Sample temperature (°C),Ambient temperature (°C),ASC tube jacket temperature (°C),LED temperature (°C),Box temperature (°C),Sample RH (%),Mass concentration (μg/m³),Mass concentration (μg/m³)
DateTimeUTC,F1_M11,P_M11,Q1_M11,Q2_M11,T1_M11,T2_M11,T3_M11,T4_M11,T5_M11,U1_M11,X0_M11,X2_M11
2021-08-19 07:00:00,,0823.7,5.00,0.00,29.5,28.6,00.0,38.5,31.4,25.9,0029.08,0017.23
2021-08-19 07:01:00,,0823.7,5.00,0.00,29.5,28.7,00.0,38.5,31.4,25.6,0028.67,0017.25
2021-08-19 07:02:00,,0823.7,5.01,0.00,29.6,28.8,00.0,38.5,31.5,25.9,0028.51,0017.38
2021-08-19 07:03:00,,0823.7,5.00,0.00,29.6,28.8,00.0,38.6,31.5,25.9,0028.35,0017.38
2021-08-19 07:04:00,,0823.7,4.98,0.00,29.7,28.5,00.0,38.6,31.5,25.7,0028.16,0017.43
2021-08-19 07:05:00,,0823.7,5.00,0.00,29.6,26.9,00.0,38.6,31.0,25.8,0028.17,0017.45
2021-08-19 07:06:00,,0823.7,5.00,0.00,29.5,26.3,00.0,38.6,30.9,25.9,0027.86,0017.43
2021-08-19 07:07:00,,0823.7,5.01,0.00,29.4,26.6,00.0,38.5,31.0,26.0,0028.06,0017.46
2021-08-19 07:08:00,,0823.7,5.01,0.00,29.4,27.0,00.0,38.5,31.0,26.1,0028.22,0017.48
2021-08-19 07:09:00,,0823.7,4.99,0.00,29.4,27.3,00.0,38.5,31.1,26.2,0028.17,0017.60
2021-08-19 07:10:00,,0823.7,5.01,0.00,29.4,27.6,00.0,38.5,31.1,26.2,0027.83,0017.58
2021-08-19 07:11:00,,0823.7,5.00,0.00,29.4,27.9,00.0,38.5,31.2,26.0,0027.09,0017.52
2021-08-19 07:12:00,,0823.7,5.00,0.00,29.4,28.1,00.0,38.5,31.3,25.9,0026.81,0017.44
2021-08-19 07:13:00,,0823.7,5.00,0.00,29.5,28.3,00.0,38.5,31.3,26.0,0026.56,0017.33
2021-08-19 07:14:00,,0823.7,5.00,0.00,29.5,28.4,00.0,38.5,31.4,26.0,0025.39,0017.27
2021-08-19 07:15:00,,0823.7,5.00,0.00,29.6,28.5,00.0,38.5,31.4,26.0,0025.41,0017.16
2021-08-19 07:16:00,,0823.7,5.01,0.00,29.6,28.6,00.0,38.6,31.5,26.1,0026.46,0017.13
2021-08-19 07:17:00,,0823.7,4.99,0.00,29.6,28.7,00.0,38.6,31.5,25.7,0026.23,0017.09
2021-08-19 07:18:00,,0823.7,5.00,0.00,29.7,28.8,00.0,38.6,31.6,25.8,0025.02,0017.03
2021-08-19 07:19:00,,0823.7,4.99,0.00,29.7,28.9,00.0,38.6,31.6,25.8,0024.98,0016.99
2021-08-19 07:20:00,,0823.7,5.00,0.00,29.7,27.8,00.0,38.6,31.3,26.0,0024.87,0016.89
2021-08-19 07:21:00,,0823.7,4.99,0.00,29.5,25.9,00.0,38.6,30.7,26.2,0024.80,0016.87
2021-08-19 07:22:00,,0823.7,5.02,0.00,29.4,25.5,00.0,38.6,30.6,26.5,0024.70,0016.86
2021-08-19 07:23:00,,0823.6,5.00,0.00,29.3,25.9,00.0,38.5,30.7,26.4,0024.43,0016.88
2021-08-19 07:24:00,,0823.7,5.00,0.00,29.2,26.4,00.0,38.5,30.8,26.5,0024.30,0016.88
2021-08-19 07:25:00,,0823.6,5.01,0.00,29.2,26.8,00.0,38.5,30.9,26.5,0024.37,0016.91
2021-08-19 07:26:00,,0823.6,5.01,0.00,29.2,27.2,00.0,38.4,31.0,26.6,0023.80,0016.90
2021-08-19 07:27:00,,0823.7,5.00,0.00,29.3,27.5,00.0,38.4,31.0,26.8,0022.44,0016.80
2021-08-19 07:28:00,,0823.7,4.99,0.00,29.3,27.8,00.0,38.4,31.1,26.9,0022.68,0016.76
2021-08-19 07:29:00,,0823.7,5.01,0.00,29.3,28.0,00.0,38.4,31.2,26.7,0022.92,0016.71
2021-08-19 07:30:00,,0823.7,5.00,0.00,29.4,28.2,00.0,38.4,31.2,26.5,0023.02,0016.66
2021-08-19 07:31:00,,0823.7,5.00,0.00,29.4,28.3,00.0,38.5,31.3,26.5,0023.04,0016.64
2021-08-19 07:32:00,,0823.7,5.01,0.00,29.5,28.4,00.0,38.5,31.3,26.4,0022.99,0016.56
2021-08-19 07:33:00,,0823.7,5.01,0.00,29.5,28.5,00.0,38.5,31.4,26.6,0023.51,0016.50
2021-08-19 07:34:00,,0823.7,5.00,0.00,29.6,28.6,00.0,38.5,31.4,26.7,0024.03,0016.41
2021-08-19 07:35:00,,0823.7,4.99,0.00,29.6,28.7,00.0,38.5,31.5,26.7,0024.50,0016.30
2021-08-19 07:36:00,,0823.7,5.01,0.00,29.6,28.8,00.0,38.6,31.5,26.6,0024.51,0016.20
2021-08-19 07:37:00,,0823.7,5.00,0.00,29.7,28.9,00.0,38.6,31.6,26.6,0024.18,0016.12
2021-08-19 07:38:00,,0823.8,4.98,0.00,29.7,28.7,00.0,38.6,31.6,26.8,0024.04,0016.01
2021-08-19 07:39:00,,0823.8,5.01,0.00,29.6,27.0,00.0,38.6,31.1,26.9,0023.48,0015.86
2021-08-19 07:40:00,,0823.8,4.99,0.00,29.4,25.5,00.0,38.6,30.7,27.2,0023.04,0015.78
2021-08-19 07:41:00,,0823.7,4.99,0.00,29.3,25.6,00.0,38.6,30.6,27.3,0022.69,0015.71
2021-08-19 07:42:00,,0823.7,5.00,0.00,29.3,26.0,00.0,38.5,30.7,27.5,0022.66,0015.63
2021-08-19 07:43:00,,0823.7,5.02,0.00,29.2,26.5,00.0,38.5,30.8,27.4,0022.58,0015.59
2021-08-19 07:44:00,,0823.7,5.00,0.00,29.2,26.9,00.0,38.4,30.9,27.6,0022.21,0015.58
2021-08-19 07:45:00,,0823.7,4.99,0.00,29.2,27.3,00.0,38.4,31.0,28.1,0021.62,0015.49
2021-08-19 07:46:00,,0823.7,5.01,0.00,29.3,27.6,00.0,38.4,31.0,28.0,0021.73,0015.42
2021-08-19 07:47:00,,0823.7,4.99,0.00,29.3,27.8,00.0,38.4,31.1,28.6,0022.22,0015.35
2021-08-19 07:48:00,,0823.7,4.99,0.00,29.3,28.0,00.0,38.4,31.2,28.7,0022.65,0015.26
2021-08-19 07:49:00,,0823.6,5.01,0.00,29.4,28.2,00.0,38.4,31.2,28.6,0022.94,0015.21
2021-08-19 07:50:00,,0823.6,5.00,0.00,29.4,28.3,00.0,38.4,31.3,28.4,0023.36,0015.18
2021-08-19 07:51:00,,0823.6,4.99,0.00,29.5,28.4,00.0,38.5,31.3,28.4,0023.47,0015.16
2021-08-19 07:52:00,,0823.6,5.00,0.00,29.5,28.5,00.0,38.5,31.4,28.3,0024.04,0015.12
2021-08-19 07:53:00,,0823.6,5.01,0.00,29.5,28.6,00.0,38.5,31.4,28.2,0023.90,0015.06
2021-08-19 07:54:00,,0823.6,5.00,0.00,29.6,28.7,00.0,38.5,31.5,28.0,0023.91,0015.02
2021-08-19 07:55:00,,0823.6,4.99,0.00,29.6,28.7,00.0,38.6,31.5,28.4,0023.94,0014.93
2021-08-19 07:56:00,,0823.6,5.00,0.00,29.7,28.8,00.0,38.6,31.6,28.5,0024.11,0014.91
2021-08-19 07:57:00,,0823.6,5.00,0.00,29.7,28.8,00.0,38.6,31.6,28.6,0024.27,0014.93
2021-08-19 07:58:00,,0823.6,4.99,0.00,29.7,28.4,00.0,38.6,31.5,29.1,0024.36,0014.90
2021-08-19 07:59:00,,0823.6,5.00,0.00,29.6,26.7,00.0,38.6,31.0,29.4,0025.93,0014.91
